Weather History for KI35 - December, 2013

Change the Weather History Date:

Sunday, December 15, 2013

  Actual Average (KLOZ) Record (KLOZ)
Temperature  
Mean Temperature 36 °F 38 °F  
Max Temperature 41 °F 47 °F 72 °F (1971)
Min Temperature 30 °F 29 °F 2 °F (2010)
Degree Days  
Heating Degree Days 30 27  
Month to date heating degree days 372  
Since 1 July heating degree days 1202  
Cooling Degree Days 0 0  
Month to date cooling degree days 0  
Moisture  
Dew Point 30 °F    
Average Humidity 88    
Maximum Humidity 100    
Minimum Humidity 80    
Precipitation  
Precipitation 0.00 in 0.14 in 1.19 in (1982)
Month to date precipitation 2.18  
Sea Level Pressure  
Sea Level Pressure 30.02 in    
Wind  
Wind Speed 8 mph (West)    
Max Wind Speed 14 mph    
Max Gust Speed 21 mph    
Visibility 9 miles    
Events      
T = Trace of Precipitation, MM = Missing Value Source: NWS Daily Summary

Daily Weather History Graph

Daily Weather History Graph

Search for Another Location

Airport or City:

Trip Planner

Search our weather history database for the weather conditions in past years. The results will help you decide how hot, cold, wet, or windy it might be!

Date:

Astronomy

Dec. 15, 2013 Rise Set
Actual Time 7:39 AM EST 5:18 PM EST
Civil Twilight 7:10 AM EST 5:47 PM EST
Nautical Twilight 6:37 AM EST 6:19 PM EST
Astronomical Twilight 6:06 AM EST 6:51 PM EST
Moon 4:20 PM EST (12/15) 5:56 AM EST (12/15)
Length of Visible Light 10h 36m
Length of Day
9h 39m
Waxing Gibbous, 97% of the Moon is Illuminated
Dec 15
Waxing Gibbous
Dec 17
Full
Dec 25
Last Quarter
Jan 1
New
Jan 7
First Quarter

Hourly Weather History & Observations

Time (EST) Temp. Windchill Dew Point Humidity Pressure Visibility Wind Dir Wind Speed Gust Speed Precip Events Conditions
12:15 AM 41.0 °F 33.9 °F 37.4 °F 87% 29.83 in 10.0 mi WNW 12.7 mph 18.4 mph N/A   Overcast
12:35 AM 41.0 °F 33.9 °F 35.6 °F 81% 29.84 in 10.0 mi West 12.7 mph 20.7 mph N/A   Overcast
12:55 AM 39.2 °F 32.5 °F 35.6 °F 87% 29.84 in 10.0 mi West 10.4 mph 20.7 mph N/A   Overcast
1:15 AM 39.2 °F 33.0 °F 35.6 °F 87% 29.84 in 10.0 mi WSW 9.2 mph - N/A   Overcast
1:35 AM 37.4 °F 30.3 °F 35.6 °F 93% 29.84 in 5.0 mi West 10.4 mph 16.1 mph N/A   Overcast
1:55 AM 37.4 °F 31.4 °F 33.8 °F 87% 29.85 in 10.0 mi West 8.1 mph - N/A   Overcast
2:15 AM 37.4 °F 30.3 °F 33.8 °F 87% 29.86 in 7.0 mi West 10.4 mph - N/A   Overcast
2:35 AM 35.6 °F 29.2 °F 33.8 °F 93% 29.86 in 10.0 mi West 8.1 mph - N/A   Overcast
2:55 AM 35.6 °F 27.1 °F 33.8 °F 93% 29.87 in 10.0 mi WNW 12.7 mph - N/A   Overcast
3:15 AM 35.6 °F 27.5 °F 32.0 °F 87% 29.88 in 10.0 mi West 11.5 mph 19.6 mph N/A   Overcast
3:35 AM 33.8 °F 24.3 °F 32.0 °F 93% 29.89 in 10.0 mi West 13.8 mph 19.6 mph N/A   Overcast
3:55 AM 33.8 °F 26.4 °F 32.0 °F 93% 29.90 in 10.0 mi West 9.2 mph - N/A   Overcast
4:15 AM 33.8 °F 28.6 °F 32.0 °F 93% 29.90 in 5.0 mi WNW 5.8 mph 18.4 mph N/A   Overcast
4:35 AM 33.8 °F 24.8 °F 32.0 °F 93% 29.91 in 5.0 mi West 12.7 mph 18.4 mph N/A   Overcast
4:55 AM 33.8 °F 25.3 °F 32.0 °F 93% 29.92 in 10.0 mi WNW 11.5 mph 20.7 mph N/A   Overcast
5:15 AM 33.8 °F 27.7 °F 32.0 °F 93% 29.92 in 5.0 mi WNW 6.9 mph - N/A   Overcast
5:35 AM 33.8 °F 28.6 °F 32.0 °F 93% 29.92 in 7.0 mi West 5.8 mph 20.7 mph N/A   Overcast
5:55 AM 33.8 °F 26.4 °F 32.0 °F 93% 29.93 in 7.0 mi WNW 9.2 mph 17.3 mph N/A   Overcast
6:15 AM 33.8 °F 27.7 °F 32.0 °F 93% 29.94 in 4.0 mi WNW 6.9 mph - N/A   Overcast
6:35 AM 32.0 °F 28.7 °F 32.0 °F 100% 29.95 in 4.0 mi WSW 3.5 mph - N/A   Overcast
6:55 AM 32.0 °F 27.5 °F 32.0 °F 100% 29.96 in 10.0 mi WNW 4.6 mph - N/A   Overcast
7:15 AM 32.0 °F 27.5 °F 32.0 °F 100% 29.97 in 5.0 mi NW 4.6 mph - N/A   Overcast
7:35 AM 32.0 °F 26.4 °F 32.0 °F 100% 29.98 in 7.0 mi NNW 5.8 mph - N/A   Overcast
7:55 AM 32.0 °F 24.8 °F 32.0 °F 100% 29.99 in 10.0 mi NW 8.1 mph 16.1 mph N/A   Overcast
8:15 AM 32.0 °F 22.5 °F 30.2 °F 93% 30.00 in 7.0 mi West 12.7 mph - N/A   Overcast
8:35 AM 32.0 °F 24.8 °F 30.2 °F 93% 30.01 in 10.0 mi West 8.1 mph 19.6 mph N/A   Overcast
8:55 AM 32.0 °F 24.2 °F 30.2 °F 93% 30.02 in 7.0 mi WNW 9.2 mph - N/A   Overcast
9:15 AM 32.0 °F 26.4 °F 30.2 °F 93% 30.03 in 7.0 mi West 5.8 mph - N/A   Overcast
9:35 AM 32.0 °F 26.4 °F 30.2 °F 93% 30.04 in 7.0 mi West 5.8 mph - N/A   Overcast
9:55 AM 32.0 °F 23.0 °F 30.2 °F 93% 30.05 in 5.0 mi WNW 11.5 mph - N/A   Overcast
10:15 AM 32.0 °F 25.6 °F 30.2 °F 93% 30.05 in 7.0 mi West 6.9 mph - N/A   Overcast
10:35 AM 32.0 °F 25.6 °F 28.4 °F 87% 30.06 in 10.0 mi WNW 6.9 mph - N/A   Overcast
10:55 AM 32.0 °F 24.2 °F 30.2 °F 93% 30.06 in 7.0 mi West 9.2 mph - N/A   Overcast
11:15 AM 32.0 °F 22.5 °F 28.4 °F 87% 30.06 in 7.0 mi West 12.7 mph 18.4 mph N/A   Overcast
11:35 AM 32.0 °F 23.6 °F 28.4 °F 87% 30.06 in 10.0 mi WNW 10.4 mph - N/A   Overcast
11:55 AM 32.0 °F 23.6 °F 28.4 °F 87% 30.06 in 10.0 mi West 10.4 mph - N/A   Overcast
12:15 PM 32.0 °F 25.6 °F 28.4 °F 87% 30.06 in 7.0 mi West 6.9 mph - N/A   Overcast
12:35 PM 32.0 °F 25.6 °F 28.4 °F 87% 30.06 in 10.0 mi West 6.9 mph 16.1 mph N/A   Overcast
12:55 PM 32.0 °F 23.0 °F 28.4 °F 87% 30.06 in 10.0 mi WNW 11.5 mph 18.4 mph N/A   Overcast
1:15 PM 32.0 °F 25.6 °F 28.4 °F 87% 30.05 in 10.0 mi West 6.9 mph - N/A   Overcast
1:35 PM 32.0 °F 24.2 °F 28.4 °F 87% 30.05 in 10.0 mi West 9.2 mph - N/A   Overcast
1:55 PM 32.0 °F 28.7 °F 28.4 °F 87% 30.04 in 7.0 mi SW 3.5 mph - N/A   Overcast
2:15 PM 32.0 °F 27.5 °F 28.4 °F 87% 30.05 in 10.0 mi West 4.6 mph - N/A   Overcast
2:35 PM 32.0 °F 28.7 °F 28.4 °F 87% 30.05 in 10.0 mi West 3.5 mph - N/A   Overcast
2:55 PM 32.0 °F 26.4 °F 28.4 °F 87% 30.05 in 10.0 mi West 5.8 mph - N/A   Overcast
3:15 PM 32.0 °F 26.4 °F 28.4 °F 87% 30.06 in 10.0 mi WSW 5.8 mph - N/A   Overcast
3:35 PM 32.0 °F 26.4 °F 28.4 °F 87% 30.06 in 10.0 mi West 5.8 mph - N/A   Overcast
3:55 PM 32.0 °F 28.7 °F 28.4 °F 87% 30.07 in 10.0 mi WSW 3.5 mph - N/A   Overcast
4:15 PM 32.0 °F 26.4 °F 26.6 °F 80% 30.07 in 10.0 mi WSW 5.8 mph - N/A   Overcast
4:35 PM 32.0 °F 27.5 °F 26.6 °F 80% 30.08 in 10.0 mi West 4.6 mph - N/A   Overcast
4:55 PM 32.0 °F 24.8 °F 28.4 °F 87% 30.09 in 10.0 mi West 8.1 mph - N/A   Overcast
5:15 PM 32.0 °F 24.2 °F 26.6 °F 80% 30.10 in 10.0 mi West 9.2 mph 16.1 mph N/A   Overcast
5:35 PM 32.0 °F 27.5 °F 28.4 °F 87% 30.10 in 10.0 mi West 4.6 mph - N/A   Overcast
5:55 PM 32.0 °F 25.6 °F 28.4 °F 87% 30.12 in 10.0 mi West 6.9 mph - N/A   Overcast
6:15 PM 32.0 °F 27.5 °F 26.6 °F 80% 30.13 in 10.0 mi West 4.6 mph - N/A   Overcast
6:35 PM 32.0 °F 24.8 °F 26.6 °F 80% 30.14 in 10.0 mi WSW 8.1 mph - N/A   Overcast
6:55 PM 32.0 °F 28.7 °F 26.6 °F 80% 30.14 in 10.0 mi West 3.5 mph - N/A   Overcast
7:15 PM 32.0 °F 28.7 °F 26.6 °F 80% 30.13 in 10.0 mi West 3.5 mph - N/A   Overcast
7:35 PM 32.0 °F 27.5 °F 26.6 °F 80% 30.13 in 10.0 mi West 4.6 mph - N/A   Overcast
7:55 PM 32.0 °F - 26.6 °F 80% 30.13 in 10.0 mi Calm Calm - N/A   Overcast
8:15 PM 32.0 °F - 26.6 °F 80% 30.13 in 10.0 mi Calm Calm - N/A   Overcast
8:35 PM 32.0 °F 28.7 °F 26.6 °F 80% 30.13 in 10.0 mi WSW 3.5 mph - N/A   Overcast
8:55 PM 32.0 °F 26.4 °F 26.6 °F 80% 30.14 in 10.0 mi West 5.8 mph - N/A   Overcast
9:15 PM 32.0 °F 28.7 °F 26.6 °F 80% 30.14 in 10.0 mi West 3.5 mph - N/A   Overcast
9:35 PM 32.0 °F 27.5 °F 26.6 °F 80% 30.14 in 10.0 mi WSW 4.6 mph - N/A   Overcast
9:55 PM 30.2 °F - 26.6 °F 86% 30.14 in 10.0 mi Calm Calm - N/A   Overcast
10:15 PM 30.2 °F - 26.6 °F 86% 30.13 in 10.0 mi Calm Calm - N/A   Overcast
10:35 PM 30.2 °F - 26.6 °F 86% 30.13 in 10.0 mi Calm Calm - N/A   Overcast
10:55 PM 30.2 °F - 26.6 °F 86% 30.13 in 10.0 mi Calm Calm - N/A   Overcast
11:15 PM 30.2 °F - 26.6 °F 86% 30.13 in 10.0 mi Calm Calm - N/A   Overcast
11:35 PM 30.2 °F - 26.6 °F 86% 30.12 in 10.0 mi Calm Calm - N/A   Overcast
11:55 PM 30.2 °F - 26.6 °F 86% 30.12 in 10.0 mi Calm Calm - N/A   Overcast